ARIANE 5 R/B, 54745

Orbit data source: Space-Track

ARIANE 5 R/B, 54745 is space debris in HEO originally from a launch on Tue, 13 Dec 2022 UTC launched from the French Guiana (FRGUI). Debris objects in space refer to the collection of defunct objects orbiting the Earth. Examples of debris include non-operational satellites, rocket bodies, and fragments generated from explosions, collisions, or faulty payload assembly.

Loading next visibility...
Identifier
54745, 2022-170E
Orbit
HEO
Country
Flag of FRFR
Related business
Manufacturer
ArianeGroup
Mission
Spacecraft
Bus & Motor
ESC-A, Unknown motor
Mass
~5,000 kg wet, ~5,000 kg dry
Launch date (UTC)
2022-12-13 (4 years ago)
Launch vehicle
Unknown
Launch site
French Guiana (FRGUI)
Object type
Payload
Rocket body
Debris
Shape & HBR
Cyl + 1 Nozzle, 3.5 m
Radar Cross Section
41.627 m², Large (>1 m²)

Expand to show TLE details & history
Last TLE update: 2 days ago

TLE from 2 days ago
0 ARIANE 5 R/B
1 54745U 22170E   26171.25193627  .00046492  13560-6  14330-2 0  9998
2 54745   6.1739 311.2579 6833766 339.5191   2.7699  2.91233862 33208
Epoch: 2026-06-20T06:02Z
TLE epoch observation values (Epoch: 2026-06-20T06:02:47.293Z)
Latitude
-0.0001°
Longitude
-47.91968°
Altitude
341.763 km
Speed
9.969 km/s
True Right ascension
20h 44m 59s
True Declination
0° 00' 00"
Sunlit
Object was in full shadow at epoch
Visualization orbit readout
Latitude
Unknown
Longitude
Unknown
Altitude
Unknown
Speed
Unknown
Apparent Right ascension
Unknown
Apparent Declination
Unknown
Sunlit
N/A
Visualization observer readout
Local Sidereal Time
21:42:48
Azimuth
Unknown
Elevation
Unknown
Doppler factor
Unknown
Orbital elements
Apogee altitude
28,498.511 km
Perigee altitude
181.752 km
Semi-major axis
20,718.268 km
Eccentricity
0.68338
Inclination
6.1739°
RAAN
311.2579°
Arg. of periapsis
339.5191°
True anomaly
19.84428°
Mean anomaly
2.7699°
Eccentric anomaly
8.67675°
Mean motion
0.7278 °/min
Orbital period
494.64 mins
BSTAR
0.001433
Loading maneuver chart data...
Computing Atmospheric mass density...
Loading historical data...
Loading historical data...
Loading historical data...
Loading historical data...
Loading historical data...
Loading historical data...
Loading historical data...
Other satellites on launch #170 in the year 2022 (2022-12-13 UTC)

Documentation

Showing up to 5 results
|